Retour au catalogue

SL-14 DEB

ActifPO
NORAD 45338·DEBRIS·🇷🇺 Russia

Lancé Aug 15, 1991 depuis Plesetsk Cosmodrome

Loading…

Prochains Passages (prochaines 24 heures)

TLE

FraisSource: Space-Track

Époque: Sep 13, 2026, 21:08 UTC

1 45338U 91056CC  26256.88088069  .00008706  00000-0  73154-2 0  9995
2 45338  82.5625 313.9698 0140808 138.0238 223.1818 13.83419548323995

Suivez SL-14 DEB en temps réel avec AllMySat

Download on the App Store